Weather in Yenikeyevo

Russia / Mari El Republic     56°23′49″N   46°26′06″E
temp.,
°C
wind,
m/s
gust,
m/s
humid.,
%
clouds,
%
prec.,
mm/h
press.,
hPa
HPBL,
m
2 march, tue
tue200:00−3sw61396100 1.7 1008762
03:00−1sw61396100 4.3 1004803
06:00+1w51299100 2.4 1000641
09:00+1w61199100 3.3 999757
12:000w511100100 0.5 998756
15:00+1wnw5119595 0.8 999887
18:00−1wnw4118964 0.1 999425
21:00−1wnw3109276 0.1 1000526
3 march, wed
wed300:00−5w389598 0.1 1000209
03:00−4wnw499596 0.2 1001437
06:00−5nw5119396 0.4 1001621
09:00−6nw5109398 0.4 1004656
12:00−5nw5890100 0.1 1005712
15:00−4wnw588999 0.3 1006786
18:00−5wnw31090100 0.1 1006613
21:00−8wsw389474 0.1 1006198
4 march, thu
thu400:00−7wsw399698 0.3 1004296
03:00−5w4109498 0.4 1003514
06:00−5wsw4109499 0.1 1001471
09:00−3sw51096100 0.7 999647
12:00−1sw61296100 0.9 995907
15:000wsw61297100 1.6 9931083
18:000wsw61291100 0.2 9911024
21:00−2wnw31091100 2.3 992559
5 march, fri
fri500:00−5wnw41192100 0.0 994573
03:00−9nw3109492 0.0 997316
06:00−13wnw389585 0.0 1001220
09:00−12wnw389260 0.0 1005357
12:00−8wnw47860 0.0 1007675
15:00−7wnw468747 0.1 1009874
18:00−11wnw2394100 0.1 101139
21:00−14w119698 0.1 101320
6 march, sat
sat600:00−15e129594 0.0 101020
03:00−15e229697 0.0 100926
06:00−15ne2295100 0.0 100830
09:00−12nne2394100 0.0 1007157
12:00−8n24904 0.0 1006430
15:00−7nnw249036 0.1 1006551
18:00−9w2495100 0.1 1006116
21:00−10w2796100 0.3 1008212